EW4266 Weather Reports


time (UTC)temp
C
wind
direction
speed
KPH
gust
KPH
rain 1hr
cm
rain 24hr
cm
rain mn
cm
humidity
%
barometer
mb
20260508000133 8 360 0.0 0.0 0.00 0.13 0.00 28 1007.8
20260508000038 8 360 0.0 0.0 0.00 0.13 0.00 29 1007.8
20260507235942 8 360 0.0 0.0 0.00 0.13 0.00 30 1007.8
20260507235904 8 360 0.0 0.0 0.00 0.15 0.00 32 1007.8
20260507235807 8 360 0.0 0.0 0.00 0.15 0.00 33 1007.8
20260507235729 8 360 0.0 0.0 0.00 0.15 0.00 33 1007.9
20260507235600 8 360 0.0 0.0 0.00 0.15 0.00 32 1007.9
20260507235454 8 360 0.0 0.0 0.00 0.15 0.00 33 1007.9
20260507235243 8 360 0.0 0.0 0.00 0.15 0.00 38 1007.8
20260507235137 8 360 0.0 0.0 0.00 0.15 0.00 38 1007.9
20260507235032 8 360 0.0 0.0 0.00 0.15 0.00 39 1007.8
20260507234959 8 360 0.0 0.0 0.00 0.15 0.00 39 1007.8
20260507234828 8 360 0.0 1.6 0.00 0.15 0.00 39 1007.8
20260507234724 8 360 0.0 1.6 0.00 0.15 0.00 40 1007.8
20260507234535 8 360 0.0 1.6 0.00 0.15 0.00 42 1007.8
20260507234446 8 360 0.0 1.6 0.00 0.15 0.00 44 1007.8
20260507234234 8 360 0.0 1.6 0.00 0.15 0.00 46 1007.8
20260507234148 8 360 0.0 1.6 0.00 0.15 0.00 47 1007.8
20260507234020 8 335 0.0 0.0 0.00 0.15 0.00 48 1007.8
20260507233940 8 336 0.0 0.0 0.00 0.15 0.00 48 1007.8
20260507233758 9 332 0.0 0.0 0.00 0.15 0.00 48 1007.7
20260507233636 9 332 0.0 0.0 0.00 0.15 0.00 49 1007.7
20260507233559 9 332 0.0 0.0 0.00 0.15 0.00 49 1007.7
20260507233425 9 332 0.0 0.0 0.00 0.15 0.00 48 1007.7
20260507233342 9 332 0.0 0.0 0.00 0.15 0.00 49 1007.8
20260507233210 9 332 0.0 1.6 0.00 0.15 0.00 51 1007.8
20260507233131 9 332 0.0 1.6 0.00 0.15 0.00 52 1007.7
20260507232935 9 332 0.0 1.6 0.00 0.15 0.00 53 1007.7
20260507232859 9 332 0.0 1.6 0.00 0.15 0.00 53 1007.7
20260507232802 9 332 0.0 1.6 0.00 0.15 0.00 53 1007.7
20260507232649 9 332 0.0 1.6 0.00 0.15 0.00 53 1007.7
20260507232524 9 332 0.0 1.6 0.00 0.15 0.00 53 1007.7
20260507232439 9 332 1.6 1.6 0.00 0.15 0.00 52 1007.7
20260507232308 9 332 0.0 1.6 0.00 0.15 0.00 52 1007.7
20260507232230 10 332 0.0 3.2 0.00 0.15 0.00 52 1007.7
20260507232032 10 332 0.0 3.2 0.00 0.15 0.00 49 1007.7
20260507231955 10 332 0.0 3.2 0.00 0.15 0.00 49 1007.7
20260507231838 10 332 0.0 3.2 0.00 0.15 0.00 52 1007.7
20260507231746 10 332 0.0 3.2 0.00 0.15 0.00 52 1007.7
20260507231641 10 332 0.0 3.2 0.00 0.15 0.00 48 1007.7
20260507231604 10 332 0.0 3.2 0.00 0.15 0.00 48 1007.7
20260507231508 10 327 0.0 3.2 0.00 0.15 0.00 49 1007.7
20260507231430 10 327 0.0 3.2 0.00 0.15 0.00 50 1007.7
20260507231234 10 327 0.0 1.6 0.00 0.15 0.00 49 1007.8
20260507231134 10 327 0.0 1.6 0.00 0.15 0.00 51 1007.8
20260507231016 10 331 0.0 1.6 0.00 0.15 0.00 51 1007.8
20260507230936 10 331 0.0 1.6 0.00 0.15 0.00 51 1007.8
20260507230816 10 24 0.0 1.6 0.00 0.15 0.00 49 1007.8
20260507230736 10 24 0.0 1.6 0.00 0.15 0.00 48 1007.8
20260507230605 10 26 0.0 1.6 0.00 0.15 0.00 49 1007.8
20260507230527 10 26 0.0 1.6 0.00 0.15 0.00 49 1007.8
20260507230332 10 24 0.0 1.6 0.00 0.15 0.00 47 1007.8
20260507230234 10 29 0.0 3.2 0.00 0.15 0.00 47 1007.7
20260507230136 10 31 0.0 3.2 0.00 0.15 0.00 45 1007.7
20260507230058 10 31 0.0 3.2 0.00 0.15 0.00 47 1007.7
20260507225927 10 274 0.0 3.2 0.00 0.15 0.00 47 1007.7
20260507225822 10 274 0.0 3.2 0.00 0.15 0.00 47 1007.7
20260507225629 10 274 0.0 4.8 0.00 0.15 0.00 46 1007.7
20260507225552 10 274 0.0 4.8 0.00 0.15 0.00 46 1007.7
20260507225439 10 274 0.0 4.8 0.00 0.15 0.00 47 1007.7
20260507225402 10 274 0.0 4.8 0.00 0.15 0.00 47 1007.7
20260507225324 10 274 1.6 4.8 0.00 0.15 0.00 47 1007.7
20260507225128 10 295 0.0 14.5 0.00 0.15 0.00 46 1007.7
20260507225032 10 295 0.0 14.5 0.00 0.15 0.00 45 1007.7
20260507224934 10 295 1.6 14.5 0.00 0.15 0.00 45 1007.7
20260507224857 10 295 3.2 14.5 0.00 0.15 0.00 45 1007.7
20260507224820 10 295 3.2 14.5 0.00 0.15 0.00 45 1007.7
20260507224641 10 269 3.2 14.5 0.00 0.15 0.00 47 1007.7
20260507224544 10 300 4.8 14.5 0.00 0.15 0.00 45 1007.7
20260507224434 10 298 8.0 14.5 0.00 0.15 0.00 45 1007.6
20260507224327 10 331 8.0 14.5 0.00 0.15 0.00 46 1007.5
20260507224250 10 296 8.0 16.1 0.00 0.15 0.00 45 1007.5
20260507224211 10 334 8.0 16.1 0.00 0.15 0.00 45 1007.5
20260507224106 10 336 9.7 16.1 0.00 0.15 0.00 45 1007.5
20260507223914 10 5 9.7 16.1 0.00 0.15 0.00 44 1007.6
20260507223837 10 337 11.3 16.1 0.00 0.15 0.00 44 1007.5
20260507223708 10 360 8.0 16.1 0.00 0.15 0.00 44 1007.6
20260507223622 10 338 6.4 16.1 0.00 0.15 0.00 44 1007.5
20260507223432 10 329 6.4 16.1 0.00 0.15 0.00 44 1007.5
20260507223330 10 324 6.4 16.1 0.00 0.15 0.00 43 1007.5
20260507223254 10 343 8.0 16.1 0.00 0.15 0.00 43 1007.5
20260507223157 10 333 8.0 16.1 0.00 0.15 0.00 43 1007.5
20260507223118 11 317 8.0 16.1 0.00 0.15 0.00 43 1007.5
20260507222950 11 315 9.7 16.1 0.00 0.15 0.00 42 1007.5
20260507222825 11 311 9.7 16.1 0.00 0.15 0.00 43 1007.4
20260507222720 11 315 9.7 16.1 0.00 0.15 0.00 43 1007.5
20260507222654 11 355 11.3 16.1 0.00 0.15 0.00 42 1007.5
20260507222617 11 321 11.3 16.1 0.00 0.15 0.00 42 1007.5
20260507222426 11 342 8.0 16.1 0.00 0.15 0.00 43 1007.5
20260507222329 11 10 8.0 17.7 0.00 0.15 0.00 41 1007.4
20260507222229 11 312 9.7 17.7 0.00 0.15 0.00 41 1007.5
20260507222151 11 299 9.7 17.7 0.00 0.15 0.00 41 1007.4
20260507221936 11 5 9.7 17.7 0.00 0.15 0.00 42 1007.4
20260507221838 11 350 6.4 17.7 0.00 0.15 0.00 41 1007.4
20260507221739 11 341 6.4 17.7 0.00 0.15 0.00 42 1007.4
20260507221643 11 341 8.0 17.7 0.00 0.15 0.00 42 1007.4
20260507221558 11 319 6.4 17.7 0.00 0.15 0.00 42 1007.4
20260507221410 11 343 6.4 17.7 0.00 0.15 0.00 42 1007.4
20260507221333 11 319 6.4 19.3 0.00 0.15 0.00 42 1007.5
20260507221135 11 355 6.4 19.3 0.00 0.15 0.00 41 1007.5
20260507221058 11 28 8.0 19.3 0.00 0.15 0.00 41 1007.5
20260507220924 11 32 12.9 22.5 0.00 0.15 0.00 40 1007.5
20260507220827 11 338 11.3 22.5 0.00 0.15 0.00 41 1007.4
20260507220751 11 321 11.3 22.5 0.00 0.15 0.00 40 1007.4
20260507220712 11 302 9.7 22.5 0.00 0.15 0.00 40 1007.4
20260507220615 11 287 12.9 22.5 0.00 0.15 0.00 41 1007.4
20260507220538 11 311 14.5 22.5 0.00 0.15 0.00 40 1007.5
20260507220330 11 333 12.9 22.5 0.00 0.15 0.00 41 1007.4
20260507220224 11 309 16.1 22.5 0.00 0.15 0.00 39 1007.4
20260507220146 11 310 14.5 22.5 0.00 0.15 0.00 39 1007.4
20260507220050 11 319 12.9 22.5 0.00 0.15 0.00 41 1007.5
20260507220013 11 343 9.7 19.3 0.00 0.15 0.00 40 1007.4
20260507215913 11 319 9.7 19.3 0.00 0.20 0.00 40 1007.4
20260507215818 11 13 8.0 19.3 0.00 0.20 0.00 41 1007.4
20260507215740 11 345 9.7 19.3 0.00 0.20 0.00 41 1007.4
20260507215611 11 337 6.4 19.3 0.00 0.20 0.00 41 1007.4
20260507215525 11 12 4.8 16.1 0.00 0.20 0.00 42 1007.4
20260507215331 11 250 4.8 19.3 0.00 0.20 0.00 43 1007.5
20260507215257 11 264 3.2 19.3 0.00 0.20 0.00 43 1007.5
20260507215157 11 337 1.6 19.3 0.00 0.20 0.00 44 1007.5
20260507215040 11 317 6.4 19.3 0.00 0.20 0.00 41 1007.5
20260507215004 11 303 9.7 19.3 0.00 0.20 0.00 40 1007.5
20260507214825 11 288 8.0 19.3 0.00 0.20 0.00 42 1007.5
20260507214746 11 294 8.0 20.9 0.00 0.20 0.00 42 1007.5
20260507214642 11 324 9.7 20.9 0.00 0.20 0.00 41 1007.5
20260507214525 11 281 12.9 20.9 0.00 0.20 0.00 41 1007.4
20260507214448 11 326 9.7 20.9 0.00 0.20 0.00 43 1007.4
20260507214415 11 339 8.0 20.9 0.00 0.20 0.00 43 1007.4
20260507214319 11 5 3.2 20.9 0.00 0.20 0.00 42 1007.5
20260507214220 11 41 3.2 20.9 0.00 0.20 0.00 41 1007.5
20260507214023 11 319 9.7 22.5 0.00 0.20 0.00 41 1007.5
20260507213925 11 342 9.7 22.5 0.00 0.20 0.00 41 1007.4
20260507213828 11 342 9.7 22.5 0.00 0.20 0.00 41 1007.4
20260507213801 11 348 12.9 22.5 0.00 0.20 0.00 38 1007.4
20260507213722 11 290 14.5 22.5 0.00 0.20 0.00 38 1007.4
20260507213525 11 323 12.9 25.7 0.00 0.20 0.00 39 1007.4
20260507213430 11 331 11.3 25.7 0.00 0.20 0.00 38 1007.4
20260507213334 11 340 12.9 25.7 0.00 0.20 0.00 38 1007.3
20260507213235 11 355 11.3 25.7 0.00 0.20 0.00 39 1007.3
20260507213106 11 323 9.7 25.7 0.00 0.20 0.00 39 1007.4
20260507213021 11 321 11.3 25.7 0.00 0.20 0.00 39 1007.4
20260507212852 12 279 12.9 25.7 0.00 0.20 0.00 38 1007.3
20260507212725 12 304 8.0 22.5 0.00 0.20 0.00 39 1007.3
20260507212626 12 283 8.0 22.5 0.00 0.20 0.00 39 1007.3
20260507212531 11 304 8.0 22.5 0.00 0.20 0.00 40 1007.4
20260507212454 11 294 8.0 22.5 0.00 0.20 0.00 40 1007.4
20260507212341 11 328 9.7 22.5 0.00 0.20 0.00 40 1007.3
20260507212307 11 239 9.7 22.5 0.00 0.20 0.00 39 1007.3
20260507212146 11 299 12.9 22.5 0.00 0.20 0.00 40 1007.3
20260507212026 11 339 14.5 22.5 0.00 0.20 0.00 39 1007.2
20260507211951 11 5 14.5 29.0 0.00 0.20 0.00 39 1007.2
20260507211854 11 351 12.9 29.0 0.00 0.20 0.00 39 1007.3
20260507211816 12 327 8.0 29.0 0.00 0.20 0.00 40 1007.3
20260507211626 12 300 14.5 29.0 0.00 0.20 0.00 39 1007.3
20260507211519 12 331 16.1 29.0 0.00 0.20 0.00 40 1007.3
20260507211330 12 327 9.7 29.0 0.00 0.20 0.00 40 1007.3
20260507211249 12 285 12.9 29.0 0.00 0.20 0.00 43 1007.3
20260507211119 12 355 12.9 29.0 0.00 0.20 0.00 40 1007.2
20260507211040 12 346 9.7 27.4 0.00 0.20 0.00 41 1007.2
20260507210844 12 347 17.7 27.4 0.00 0.20 0.00 40 1007.1
20260507210804 12 355 19.3 27.4 0.00 0.20 0.00 40 1007.1
20260507210717 12 5 17.7 25.7 0.00 0.20 0.00 39 1007.1
20260507210618 12 9 16.1 22.5 0.00 0.20 0.00 41 1007.1
20260507210450 12 299 12.9 24.1 0.00 0.20 0.00 40 1007.2
20260507210231 11 325 12.9 27.4 0.00 0.20 0.00 40 1007.2
20260507210133 11 332 11.3 27.4 0.00 0.20 0.00 39 1007.2
20260507210040 11 317 9.7 27.4 0.00 0.20 0.00 38 1007.2
20260507205944 12 318 12.9 27.4 0.00 0.20 0.00 38 1007.2
20260507205839 12 312 16.1 27.4 0.00 0.30 0.00 41 1007.1
20260507205724 12 320 14.5 27.4 0.00 0.30 0.00 39 1007.1
20260507205645 12 343 12.9 27.4 0.00 0.30 0.00 39 1007.1
20260507205516 12 339 14.5 27.4 0.00 0.30 0.00 39 1007.2
20260507205430 12 236 14.5 27.4 0.00 0.30 0.00 39 1007.1
20260507205239 12 346 8.0 29.0 0.00 0.30 0.00 39 1007.0
20260507205155 12 318 11.3 29.0 0.00 0.30 0.00 40 1007.0
20260507205122 12 268 11.3 29.0 0.00 0.30 0.00 40 1007.1
20260507204923 12 303 14.5 29.0 0.00 0.30 0.00 39 1007.0
20260507204824 12 332 17.7 29.0 0.00 0.30 0.00 38 1007.0
20260507204728 12 334 20.9 29.0 0.00 0.30 0.00 40 1007.0
20260507204629 12 341 19.3 29.0 0.00 0.30 0.00 38 1007.0
20260507204439 12 339 19.3 29.0 0.00 0.30 0.00 39 1006.9
20260507204332 12 331 19.3 27.4 0.00 0.30 0.00 39 1006.9
20260507204254 12 315 17.7 27.4 0.00 0.30 0.00 39 1006.9
20260507204122 12 321 16.1 25.7 0.00 0.30 0.00 41 1006.9
20260507204037 12 317 16.1 25.7 0.00 0.30 0.00 42 1006.9
20260507203937 12 355 12.9 25.7 0.00 0.30 0.00 41 1006.9
20260507203840 12 323 11.3 24.1 0.00 0.30 0.00 40 1006.9
20260507203744 12 283 12.9 24.1 0.00 0.30 0.00 39 1006.9
20260507203638 12 317 14.5 24.1 0.00 0.30 0.00 37 1006.9
20260507203602 12 296 12.9 24.1 0.00 0.30 0.00 37 1006.9
20260507203506 12 332 11.3 24.1 0.00 0.30 0.00 39 1006.8
20260507203427 12 318 11.3 24.1 0.00 0.30 0.00 40 1006.9
20260507203233 12 319 14.5 27.4 0.00 0.30 0.00 37 1006.9
20260507203135 12 333 12.9 27.4 0.00 0.30 0.00 38 1006.9
20260507203037 12 351 11.3 27.4 0.00 0.30 0.00 39 1006.9
20260507203000 12 318 11.3 27.4 0.00 0.30 0.00 39 1006.9
20260507202922 12 313 11.3 27.4 0.00 0.30 0.00 39 1006.8
20260507202724 12 330 16.1 27.4 0.00 0.30 0.00 38 1006.8
20260507202646 12 355 19.3 27.4 0.00 0.30 0.00 38 1006.8
20260507202549 12 350 19.3 27.4 0.00 0.30 0.00 38 1006.9
20260507202448 12 340 17.7 30.6 0.00 0.30 0.00 39 1006.8
20260507202325 12 290 17.7 30.6 0.00 0.30 0.00 41 1006.8
20260507202226 12 355 19.3 30.6 0.00 0.30 0.00 39 1006.8
20260507202150 12 5 17.7 30.6 0.00 0.30 0.00 38 1006.8
20260507202033 12 355 16.1 30.6 0.00 0.30 0.00 41 1006.7
20260507201955 12 351 14.5 30.6 0.00 0.30 0.00 42 1006.7
20260507201838 12 329 12.9 30.6 0.00 0.30 0.00 38 1006.7
20260507201735 12 329 16.1 30.6 0.00 0.30 0.00 38 1006.7
20260507201656 12 300 16.1 30.6 0.00 0.30 0.00 39 1006.7
20260507201559 12 5 14.5 30.6 0.00 0.30 0.00 39 1006.7
20260507201522 12 350 12.9 30.6 0.00 0.30 0.00 40 1006.8
20260507201329 12 333 14.5 30.6 0.00 0.30 0.00 39 1006.7
20260507201241 12 35 16.1 30.6 0.00 0.30 0.00 39 1006.7
20260507201126 12 319 22.5 30.6 0.00 0.30 0.00 36 1006.8
20260507201049 12 342 24.1 30.6 0.00 0.30 0.00 38 1006.8
20260507200924 12 325 17.7 29.0 0.00 0.30 0.00 40 1006.7
20260507200829 12 9 19.3 29.0 0.00 0.30 0.00 40 1006.8
20260507200729 12 350 19.3 29.0 0.00 0.30 0.00 40 1006.8
20260507200653 12 14 16.1 29.0 0.00 0.30 0.00 40 1006.8
20260507200538 12 305 9.7 29.0 0.00 0.30 0.00 39 1006.8
20260507200502 12 320 12.9 29.0 0.00 0.30 0.00 39 1006.8
20260507200415 12 342 11.3 29.0 0.00 0.30 0.00 38 1006.8
20260507200225 12 281 17.7 29.0 0.00 0.30 0.00 38 1006.9
20260507200140 12 315 12.9 30.6 0.00 0.30 0.00 38 1006.8
20260507200043 12 325 8.0 30.6 0.00 0.30 0.00 36 1006.8
20260507195945 12 319 11.3 30.6 0.00 0.41 0.00 37 1006.9
20260507195826 12 340 12.9 30.6 0.00 0.41 0.00 38 1006.8
20260507195730 12 278 9.7 30.6 0.00 0.41 0.00 37 1007.0
20260507195657 12 296 8.0 30.6 0.00 0.41 0.00 40 1006.9
20260507195507 12 300 14.5 30.6 0.00 0.41 0.00 37 1006.9
20260507195323 12 324 16.1 27.4 0.00 0.41 0.00 37 1006.9
20260507195227 12 294 11.3 27.4 0.00 0.41 0.00 42 1006.8
20260507195149 12 263 6.4 35.4 0.00 0.41 0.00 43 1006.8
20260507194939 12 306 9.7 35.4 0.00 0.41 0.00 42 1006.8
20260507194832 12 302 14.5 35.4 0.00 0.41 0.00 38 1006.9
20260507194755 12 302 19.3 35.4 0.00 0.41 0.00 39 1006.9
20260507194641 12 324 16.1 35.4 0.00 0.41 0.00 39 1006.8
20260507194604 12 284 17.7 35.4 0.00 0.41 0.00 41 1006.8
20260507194445 12 335 19.3 35.4 0.00 0.41 0.00 41 1006.8
20260507194346 12 339 17.7 35.4 0.00 0.41 0.00 41 1006.8
20260507194309 12 5 17.7 32.2 0.00 0.41 0.00 39 1006.8
20260507194210 12 336 19.3 32.2 0.00 0.41 0.00 40 1006.8
20260507194132 12 317 19.3 32.2 0.00 0.41 0.00 40 1006.8
20260507193935 12 342 19.3 32.2 0.00 0.41 0.00 39 1006.9
20260507193838 12 346 22.5 32.2 0.00 0.41 0.00 39 1006.8
20260507193741 12 336 19.3 32.2 0.00 0.41 0.00 40 1006.9
20260507193701 12 9 16.1 29.0 0.00 0.41 0.00 40 1006.9
20260507193631 12 311 14.5 37.0 0.00 0.41 0.00 39 1006.9
20260507193316 12 331 14.5 37.0 0.00 0.41 0.00 38 1006.9
20260507193158 12 346 9.7 37.0 0.00 0.41 0.00 39 1006.9
20260507193037 12 323 11.3 37.0 0.00 0.41 0.00 38 1007.0
20260507192943 12 297 19.3 37.0 0.00 0.41 0.00 37 1007.0
20260507192905 12 331 17.7 37.0 0.00 0.41 0.00 36 1007.0
20260507192715 12 342 11.3 32.2 0.00 0.41 0.00 37 1007.1
20260507192629 12 275 11.3 32.2 0.00 0.41 0.00 37 1007.0
20260507192502 12 286 9.7 32.2 0.00 0.41 0.00 35 1007.0
20260507192345 13 281 9.7 32.2 0.00 0.41 0.00 35 1007.0
20260507192226 13 293 12.9 32.2 0.00 0.41 0.00 37 1007.0
20260507192149 13 217 12.9 32.2 0.00 0.41 0.00 39 1007.0
20260507192114 13 325 16.1 32.2 0.00 0.41 0.00 38 1007.0
20260507191925 13 297 16.1 25.7 0.00 0.41 0.00 38 1007.0
20260507191841 13 309 12.9 24.1 0.00 0.41 0.00 38 1007.0
20260507191711 13 327 9.7 22.5 0.00 0.41 0.00 40 1006.9
20260507191632 13 221 14.5 22.5 0.00 0.41 0.00 39 1006.9
20260507191516 13 5 11.3 24.1 0.00 0.41 0.00 40 1007.0
20260507191441 13 324 9.7 22.5 0.00 0.41 0.00 37 1007.0
20260507191241 13 279 11.3 22.5 0.00 0.41 0.00 37 1007.0
20260507191133 13 313 14.5 27.4 0.00 0.41 0.00 36 1007.1
20260507191056 13 273 14.5 27.4 0.00 0.41 0.00 39 1007.1
20260507191000 13 198 11.3 27.4 0.00 0.41 0.00 39 1007.0
20260507190922 13 313 11.3 27.4 0.00 0.41 0.00 37 1007.0
20260507190724 13 325 11.3 27.4 0.00 0.41 0.00 37 1006.9
20260507190627 13 327 9.7 27.4 0.00 0.41 0.00 37 1007.0
20260507190530 13 335 11.3 38.6 0.00 0.41 0.00 40 1006.9
20260507190436 13 299 14.5 38.6 0.00 0.41 0.00 40 1007.0
20260507190256 13 325 11.3 38.6 0.00 0.41 0.00 41 1007.1
20260507190036 13 326 9.7 38.6 0.00 0.41 0.00 38 1007.1
20260507190000 13 355 12.9 38.6 0.00 0.41 0.00 38 1007.1
20260507185824 13 332 20.9 38.6 0.00 0.51 0.00 40 1007.1
20260507185739 13 350 17.7 38.6 0.00 0.51 0.00 40 1006.9
20260507185517 12 183 9.7 20.9 0.00 0.51 0.00 39 1006.9
20260507185440 12 322 9.7 22.5 0.00 0.51 0.00 38 1007.0
20260507185305 12 244 9.7 27.4 0.00 0.51 0.00 35 1007.0
20260507185235 12 304 12.9 27.4 0.00 0.51 0.00 35 1007.1
20260507185108 12 289 11.3 29.0 0.00 0.51 0.00 38 1007.1
20260507185031 12 292 9.7 29.0 0.00 0.51 0.00 37 1007.0
20260507184834 12 302 8.0 29.0 0.00 0.51 0.00 36 1007.0
20260507184756 12 313 9.7 29.0 0.00 0.51 0.00 37 1007.0
20260507184638 12 346 17.7 29.0 0.00 0.51 0.00 36 1007.1
20260507184601 12 288 17.7 29.0 0.00 0.51 0.00 36 1007.1
20260507184515 12 318 14.5 29.0 0.00 0.51 0.00 37 1007.2
20260507184326 12 294 6.4 22.5 0.00 0.51 0.00 43 1007.0
20260507184241 12 315 8.0 22.5 0.00 0.51 0.00 39 1007.1
20260507184033 12 323 11.3 22.5 0.00 0.51 0.00 39 1007.1
20260507183948 12 337 12.9 22.5 0.00 0.51 0.00 39 1007.1
20260507183817 12 186 11.3 22.5 0.00 0.51 0.00 37 1007.1
20260507183738 12 327 9.7 20.9 0.00 0.51 0.00 38 1007.1
20260507183542 12 217 8.0 22.5 0.00 0.51 0.00 37 1007.2
20260507183442 12 233 8.0 22.5 0.00 0.51 0.00 39 1007.2
20260507183325 12 178 12.9 22.5 0.00 0.51 0.00 37 1007.2
20260507183236 12 297 12.9 22.5 0.00 0.51 0.00 37 1007.2
20260507183140 12 316 11.3 22.5 0.00 0.51 0.00 36 1007.1
20260507183026 12 309 9.7 22.5 0.00 0.51 0.00 37 1007.1
20260507182948 12 255 9.7 22.5 0.00 0.51 0.00 38 1007.1
20260507182818 12 288 8.0 22.5 0.00 0.51 0.00 38 1007.1
20260507182740 12 283 8.0 22.5 0.00 0.51 0.00 37 1007.1
20260507182543 12 289 8.0 20.9 0.00 0.51 0.00 38 1007.2
20260507182505 12 327 9.7 20.9 0.00 0.51 0.00 37 1007.3
20260507182408 12 271 8.0 20.9 0.00 0.51 0.00 39 1007.3
20260507182330 12 279 8.0 20.9 0.00 0.51 0.00 39 1007.2
20260507182134 12 309 12.9 22.5 0.00 0.51 0.00 38 1007.2
20260507182036 12 315 9.7 29.0 0.00 0.51 0.00 39 1007.2
20260507181944 12 271 9.7 29.0 0.00 0.51 0.00 42 1007.1
20260507181824 12 293 11.3 29.0 0.00 0.51 0.00 40 1007.1
20260507181627 12 255 9.7 29.0 0.00 0.51 0.00 38 1007.2
20260507181530 12 188 8.0 29.0 0.00 0.51 0.00 42 1007.2
20260507181431 12 256 11.3 29.0 0.00 0.51 0.00 39 1007.3
20260507181332 12 272 12.9 29.0 0.00 0.51 0.00 38 1007.3
20260507181136 12 279 14.5 29.0 0.00 0.51 0.00 37 1007.2
20260507181038 12 213 9.7 24.1 0.00 0.51 0.00 40 1007.3
20260507180925 12 214 9.7 24.1 0.00 0.51 0.00 37 1007.3
20260507180848 12 301 11.3 24.1 0.00 0.51 0.00 38 1007.3
20260507180748 12 277 12.9 24.1 0.00 0.51 0.00 39 1007.4
20260507180632 12 286 14.5 24.1 0.00 0.51 0.00 39 1007.5
20260507180554 12 28 14.5 24.1 0.00 0.51 0.00 40 1007.5
20260507180437 12 317 14.5 24.1 0.00 0.51 0.00 40 1007.4
20260507180400 12 315 12.9 24.1 0.00 0.51 0.00 40 1007.4
20260507180302 12 327 12.9 22.5 0.00 0.51 0.00 39 1007.4
20260507180206 12 241 11.3 24.1 0.00 0.51 0.00 39 1007.4
20260507180128 12 207 8.0 24.1 0.00 0.51 0.00 39 1007.4
20260507175932 12 355 6.4 24.1 0.00 0.66 0.00 40 1007.4
20260507175838 12 187 9.7 25.7 0.00 0.66 0.00 39 1007.4
20260507175721 12 264 12.9 25.7 0.00 0.66 0.00 39 1007.5
20260507175645 12 265 12.9 25.7 0.00 0.66 0.00 40 1007.5
20260507175606 12 333 12.9 25.7 0.00 0.66 0.00 38 1007.3
20260507175523 12 307 14.5 25.7 0.00 0.66 0.00 38 1007.4
20260507175444 12 315 12.9 25.7 0.00 0.66 0.00 39 1007.4
20260507175315 12 298 14.5 25.7 0.00 0.66 0.00 39 1007.5
20260507175231 12 243 16.1 25.7 0.00 0.66 0.00 38 1007.4
20260507175041 12 341 11.3 24.1 0.00 0.66 0.00 40 1007.4
20260507174956 12 119 9.7 24.1 0.00 0.66 0.00 39 1007.4
20260507174830 12 286 9.7 24.1 0.00 0.66 0.00 39 1007.4
20260507174730 12 273 12.9 24.1 0.00 0.66 0.00 39 1007.3
20260507174601 12 336 12.9 19.3 0.00 0.66 0.00 41 1007.4
20260507174434 12 288 11.3 25.7 0.00 0.66 0.00 39 1007.4
20260507174356 12 320 11.3 25.7 0.00 0.66 0.00 41 1007.4
20260507174300 12 256 11.3 25.7 0.00 0.66 0.00 39 1007.5
20260507174220 12 238 11.3 25.7 0.00 0.66 0.00 42 1007.5
20260507174051 12 196 11.3 25.7 0.00 0.66 0.00 38 1007.4
20260507173915 12 221 9.7 25.7 0.00 0.66 0.00 40 1007.3
20260507173829 12 157 4.8 25.7 0.00 0.66 0.00 39 1007.4
20260507173756 12 292 8.0 25.7 0.00 0.66 0.00 39 1007.4
20260507173717 12 318 6.4 25.7 0.00 0.66 0.00 40 1007.4
20260507173541 12 286 6.4 25.7 0.00 0.66 0.00 42 1007.5
20260507173444 12 188 9.7 25.7 0.00 0.66 0.00 39 1007.5
20260507173349 12 267 11.3 25.7 0.00 0.66 0.00 42 1007.5
20260507173230 12 234 12.9 25.7 0.00 0.66 0.00 42 1007.5
20260507173131 12 263 11.3 25.7 0.00 0.66 0.00 41 1007.4
20260507173054 12 273 8.0 25.7 0.00 0.66 0.00 40 1007.4
20260507173016 12 326 6.4 25.7 0.00 0.66 0.00 40 1007.5
20260507172840 12 247 11.3 25.7 0.00 0.66 0.00 38 1007.5
20260507172725 12 220 9.7 25.7 0.00 0.66 0.00 38 1007.5
20260507172628 12 9 8.0 25.7 0.00 0.66 0.00 42 1007.5
20260507172550 12 310 8.0 25.7 0.00 0.66 0.00 40 1007.5
20260507172512 12 190 9.7 25.7 0.00 0.66 0.00 42 1007.6
20260507172415 12 283 12.9 25.7 0.00 0.66 0.00 39 1007.6
20260507172316 12 282 11.3 22.5 0.00 0.66 0.00 41 1007.6
20260507172217 12 310 8.0 22.5 0.00 0.66 0.00 44 1007.5
20260507172121 12 292 8.0 22.5 0.00 0.66 0.00 43 1007.5
20260507172044 12 332 6.4 22.5 0.00 0.66 0.00 40 1007.5
20260507171913 12 205 8.0 22.5 0.00 0.66 0.00 41 1007.4
20260507171828 12 234 9.7 22.5 0.00 0.66 0.00 42 1007.5
20260507171641 12 321 11.3 22.5 0.00 0.66 0.00 40 1007.5
20260507171605 12 253 9.7 22.5 0.00 0.66 0.00 42 1007.5
20260507171439 12 235 8.0 20.9 0.00 0.66 0.00 42 1007.5
20260507171324 12 292 8.0 29.0 0.00 0.66 0.00 41 1007.6
20260507171245 12 242 8.0 29.0 0.00 0.66 0.00 41 1007.6
20260507171117 12 248 4.8 29.0 0.00 0.66 0.00 42 1007.5
20260507171031 12 171 4.8 29.0 0.00 0.66 0.00 44 1007.6
20260507170841 12 244 9.7 29.0 0.00 0.66 0.00 41 1007.6
20260507170756 12 215 11.3 29.0 0.00 0.66 0.00 41 1007.6
20260507170605 12 269 19.3 29.0 0.00 0.66 0.00 41 1007.6
20260507170531 12 200 17.7 30.6 0.00 0.66 0.00 40 1007.6
20260507170333 12 263 12.9 29.0 0.00 0.66 0.00 43 1007.7
20260507170255 12 188 9.7 29.0 0.00 0.66 0.00 42 1007.7
20260507170138 12 226 8.0 29.0 0.00 0.66 0.00 43 1007.7
20260507170059 12 242 8.0 29.0 0.00 0.66 0.00 39 1007.7
20260507170013 12 215 12.9 29.0 0.00 0.66 0.00 40 1007.7
20260507165800 12 209 9.7 29.0 0.00 0.86 0.00 44 1007.7
20260507165722 12 189 8.0 19.3 0.00 0.86 0.00 44 1007.7
20260507165552 12 204 6.4 19.3 0.00 0.86 0.00 45 1007.6
20260507165426 12 136 6.4 17.7 0.00 0.86 0.00 42 1007.6
20260507165353 12 213 6.4 17.7 0.00 0.86 0.00 42 1007.6
20260507165245 12 214 8.0 16.1 0.00 0.86 0.00 43 1007.8
20260507165056 12 226 8.0 16.1 0.00 0.86 0.00 45 1007.7
20260507164928 12 179 9.7 24.1 0.00 0.86 0.00 41 1007.8
20260507164831 12 206 8.0 24.1 0.00 0.86 0.00 41 1007.9
20260507164737 12 148 6.4 24.1 0.00 0.86 0.00 43 1007.8
20260507164631 12 207 8.0 24.1 0.00 0.86 0.00 43 1007.9
20260507164551 12 268 9.7 24.1 0.00 0.86 0.00 44 1008.0
20260507164454 12 186 6.4 24.1 0.00 0.86 0.00 44 1008.0
20260507164340 11 178 8.0 24.1 0.00 0.86 0.00 44 1007.9
20260507164244 11 213 12.9 24.1 0.00 0.86 0.00 43 1007.9
20260507164137 11 314 12.9 24.1 0.00 0.86 0.00 44 1008.0
20260507164101 11 327 9.7 24.1 0.00 0.86 0.00 44 1008.0
20260507164006 11 248 6.4 22.5 0.00 0.86 0.00 46 1007.9
20260507163929 11 299 4.8 22.5 0.00 0.86 0.00 46 1007.9
20260507163732 11 348 3.2 22.5 0.00 0.86 0.00 44 1008.0
20260507163633 11 312 4.8 22.5 0.00 0.86 0.00 46 1008.0
20260507163540 11 311 8.0 22.5 0.00 0.86 0.00 43 1008.0
20260507163444 11 302 9.7 22.5 0.00 0.86 0.00 44 1008.0
20260507163358 11 319 8.0 20.9 0.00 0.86 0.00 43 1008.2
20260507163207 11 293 4.8 25.7 0.00 0.86 0.00 45 1008.1
20260507163129 11 254 4.8 25.7 0.00 0.86 0.00 45 1008.1
20260507162932 11 302 11.3 25.7 0.00 0.86 0.00 42 1008.2
20260507162854 11 297 11.3 25.7 0.00 0.86 0.00 41 1008.2
20260507162737 11 288 12.9 25.7 0.00 0.86 0.00 41 1008.1
20260507162659 11 331 11.3 25.7 0.00 0.86 0.00 42 1008.1
20260507162613 11 331 11.3 25.7 0.00 0.86 0.00 41 1008.2
20260507162438 11 287 16.1 25.7 0.00 0.86 0.00 44 1008.3
20260507162402 11 311 14.5 24.1 0.00 0.86 0.00 44 1008.3
20260507162317 11 290 14.5 24.1 0.00 0.86 0.00 44 1008.4
20260507162128 11 168 11.3 22.5 0.00 0.86 0.00 43 1008.2
20260507162023 11 241 16.1 22.5 0.00 0.86 0.00 41 1008.2
20260507161946 11 164 12.9 22.5 0.00 0.86 0.00 41 1008.2
20260507161830 11 216 8.0 22.5 0.00 0.86 0.00 45 1008.3
20260507161740 11 215 8.0 22.5 0.00 0.86 0.00 45 1008.3
20260507161622 11 182 6.4 22.5 0.00 0.86 0.00 46 1008.3
20260507161547 11 232 8.0 22.5 0.00 0.86 0.00 44 1008.3
20260507161417 11 307 8.0 22.5 0.00 0.86 0.00 44 1008.4
20260507161311 11 264 8.0 25.7 0.00 0.86 0.00 44 1008.4
20260507161130 11 327 12.9 25.7 0.00 0.86 0.00 43 1008.4
20260507161045 11 341 11.3 30.6 0.00 0.86 0.00 45 1008.4
20260507160916 11 229 9.7 30.6 0.00 0.86 0.00 41 1008.3
20260507160837 11 284 11.3 30.6 0.00 0.86 0.00 41 1008.4
20260507160640 11 263 9.7 30.6 0.00 0.86 0.00 43 1008.4
20260507160544 11 335 12.9 30.6 0.00 0.86 0.00 43 1008.4
20260507160429 11 250 11.3 30.6 0.00 0.86 0.00 45 1008.5
20260507160353 11 329 12.9 30.6 0.00 0.86 0.00 43 1008.5
20260507160308 11 289 14.5 30.6 0.00 0.86 0.00 43 1008.5
20260507160118 11 325 9.7 27.4 0.00 0.86 0.00 44 1008.5
20260507160040 11 199 11.3 27.4 0.00 0.86 0.00 44 1008.5
20260507155843 11 300 12.9 27.4 0.00 1.14 0.00 42 1008.5
20260507155804 11 286 14.5 27.4 0.00 1.14 0.00 43 1008.6
20260507155707 11 332 9.7 27.4 0.00 1.14 0.00 46 1008.7
20260507155629 11 298 6.4 22.5 0.00 1.14 0.00 45 1008.7
20260507155434 11 240 3.2 17.7 0.00 1.14 0.00 45 1008.7
20260507155340 11 163 1.6 25.7 0.00 1.14 0.00 46 1008.8
20260507155224 11 225 4.8 25.7 0.00 1.14 0.00 49 1008.7
20260507155147 11 292 4.8 25.7 0.00 1.14 0.00 47 1008.8
20260507154935 11 244 9.7 25.7 0.00 1.14 0.00 43 1008.9
20260507154847 11 219 9.7 25.7 0.00 1.14 0.00 46 1008.9
20260507154718 11 196 6.4 25.7 0.00 1.14 0.00 44 1008.9
20260507154619 11 51 11.3 25.7 0.00 1.14 0.00 44 1008.9
20260507154523 11 162 14.5 25.7 0.00 1.14 0.00 43 1008.8
20260507154445 11 190 11.3 19.3 0.00 1.14 0.00 45 1008.9
20260507154235 11 220 9.7 22.5 0.00 1.14 0.00 46 1008.9
20260507154148 11 293 9.7 22.5 0.00 1.14 0.00 46 1008.9
20260507154054 11 254 11.3 22.5 0.00 1.14 0.00 48 1008.9
20260507154016 11 155 9.7 22.5 0.00 1.14 0.00 46 1008.8
20260507153931 11 283 9.7 22.5 0.00 1.14 0.00 46 1008.9
20260507153749 10 307 8.0 19.3 0.00 1.14 0.00 45 1009.0
20260507153650 10 306 6.4 19.3 0.00 1.14 0.00 44 1009.0
20260507153534 11 284 8.0 19.3 0.00 1.14 0.00 45 1009.0
20260507153456 11 279 8.0 19.3 0.00 1.14 0.00 44 1009.0
20260507153237 11 313 9.7 19.3 0.00 1.14 0.00 45 1009.0
20260507153159 11 189 8.0 17.7 0.00 1.14 0.00 45 1009.0
20260507153043 11 286 8.0 17.7 0.00 1.14 0.00 47 1008.9
20260507152950 11 281 8.0 17.7 0.00 1.14 0.00 49 1008.9
20260507152913 11 308 6.4 16.1 0.00 1.14 0.00 47 1008.9
20260507152815 11 341 8.0 14.5 0.00 1.14 0.00 45 1008.9
20260507152737 11 327 8.0 14.5 0.00 1.14 0.00 45 1008.9
20260507152618 11 333 6.4 19.3 0.00 1.14 0.00 47 1009.0
20260507152534 11 325 8.0 19.3 0.00 1.14 0.00 48 1009.0
20260507152404 10 174 6.4 27.4 0.00 1.14 0.00 49 1009.0
20260507152327 10 254 4.8 27.4 0.00 1.14 0.00 49 1008.9
20260507152129 10 284 3.2 27.4 0.00 1.14 0.00 50 1008.8
20260507152051 10 313 3.2 27.4 0.00 1.14 0.00 50 1008.8
20260507151955 10 61 6.4 27.4 0.00 1.14 0.00 49 1008.9
20260507151855 10 328 8.0 27.4 0.00 1.14 0.00 47 1008.9
20260507151743 10 355 9.7 27.4 0.00 1.14 0.00 47 1008.9
20260507151655 10 264 14.5 27.4 0.00 1.14 0.00 47 1008.8
20260507151555 10 225 12.9 24.1 0.00 1.14 0.00 46 1008.9
20260507151458 10 306 9.7 24.1 0.00 1.14 0.00 48 1008.9
20260507151400 10 338 8.0 24.1 0.00 1.14 0.00 48 1008.9
20260507151302 10 244 8.0 24.1 0.00 1.14 0.00 50 1008.9
20260507151225 10 299 6.4 24.1 0.00 1.14 0.00 50 1008.9
20260507151027 10 296 11.3 24.1 0.00 1.14 0.00 48 1008.9
20260507150949 10 194 12.9 24.1 0.00 1.14 0.00 48 1008.9
20260507150854 10 228 14.5 24.1 0.00 1.14 0.00 47 1008.8
20260507150816 10 178 8.0 19.3 0.00 1.14 0.00 49 1008.9
20260507150651 10 336 8.0 19.3 0.00 1.14 0.00 48 1008.9
20260507150543 10 235 9.7 19.3 0.00 1.14 0.00 49 1009.0
20260507150352 10 281 6.4 19.3 0.00 1.14 0.00 50 1008.8
20260507150251 10 207 6.4 19.3 0.00 1.14 0.00 50 1008.8
20260507150122 10 189 12.9 30.6 0.00 1.14 0.00 47 1008.9
20260507150036 10 206 12.9 30.6 0.00 1.14 0.00 48 1008.9
20260507145906 10 171 11.3 30.6 0.00 1.35 0.00 48 1008.9
20260507145829 10 193 11.3 30.6 0.00 1.35 0.00 48 1008.9
20260507145631 10 167 11.3 30.6 0.00 1.35 0.00 47 1008.9
20260507145553 10 238 11.3 30.6 0.00 1.35 0.00 47 1008.9
20260507145456 10 226 14.5 30.6 0.00 1.35 0.00 47 1008.9
20260507145341 10 188 16.1 30.6 0.00 1.35 0.00 47 1008.9
20260507145223 10 214 11.3 20.9 0.00 1.35 0.00 47 1008.9
20260507145147 10 225 9.7 20.9 0.00 1.35 0.00 47 1008.9
20260507145101 10 180 8.0 20.9 0.00 1.35 0.00 47 1008.9
20260507144930 10 235 9.7 20.9 0.00 1.35 0.00 49 1009.1
20260507144832 10 277 11.3 20.9 0.00 1.35 0.00 49 1009.0
20260507144636 10 213 8.0 24.1 0.00 1.35 0.00 50 1008.9
20260507144538 10 238 8.0 24.1 0.00 1.35 0.00 50 1008.9
20260507144440 10 300 11.3 24.1 0.00 1.35 0.00 50 1008.8
20260507144401 10 215 12.9 24.1 0.00 1.35 0.00 50 1008.8
20260507144236 10 333 9.7 16.1 0.00 1.35 0.00 48 1009.0
20260507144130 10 290 8.0 16.1 0.00 1.35 0.00 49 1008.9
20260507143940 10 220 4.8 17.7 0.00 1.35 0.00 49 1009.0
20260507143834 9 309 6.4 17.7 0.00 1.35 0.00 49 1009.0
20260507143644 9 293 9.7 22.5 0.00 1.35 0.00 49 1009.0
20260507143559 9 303 8.0 22.5 0.00 1.35 0.00 50 1009.0
20260507143429 9 271 6.4 22.5 0.00 1.35 0.00 48 1009.0
20260507143330 9 314 8.0 22.5 0.00 1.35 0.00 48 1009.0
20260507143201 9 321 8.0 22.5 0.00 1.35 0.00 49 1008.9
20260507143033 9 261 8.0 22.5 0.00 1.35 0.00 49 1008.9
20260507143001 9 197 6.4 22.5 0.00 1.35 0.00 48 1008.9
20260507142825 9 313 4.8 14.5 0.00 1.35 0.00 48 1009.0
20260507142739 9 227 6.4 14.5 0.00 1.35 0.00 48 1009.0
20260507142608 9 232 6.4 14.5 0.00 1.35 0.00 49 1009.0
20260507142530 9 283 6.4 14.5 0.00 1.35 0.00 48 1009.0
20260507142333 9 317 4.8 14.5 0.00 1.35 0.00 49 1009.1
20260507142257 9 266 6.4 14.5 0.00 1.35 0.00 48 1009.1
20260507142201 9 263 4.8 14.5 0.00 1.35 0.00 48 1009.1
20260507142123 9 234 4.8 14.5 0.00 1.35 0.00 48 1009.2
20260507141939 9 253 8.0 14.5 0.00 1.35 0.00 48 1009.1
20260507141833 9 287 6.4 14.5 0.00 1.35 0.00 48 1009.1
20260507141716 9 360 4.8 12.9 0.00 1.35 0.00 47 1009.1
20260507141649 9 288 6.4 14.5 0.00 1.35 0.00 47 1009.1
20260507141612 9 315 8.0 14.5 0.00 1.35 0.00 48 1009.1
20260507141515 9 329 4.8 16.1 0.00 1.35 0.00 48 1009.0
20260507141416 9 325 4.8 16.1 0.00 1.35 0.00 48 1009.1
20260507141339 9 271 6.4 16.1 0.00 1.35 0.00 47 1009.1
20260507141219 9 322 6.4 16.1 0.00 1.35 0.00 47 1009.1
20260507141141 9 302 6.4 16.1 0.00 1.35 0.00 47 1009.1
20260507141011 9 238 6.4 16.1 0.00 1.35 0.00 47 1009.1
20260507140916 9 237 6.4 16.1 0.00 1.35 0.00 47 1009.0
20260507140740 8 263 8.0 16.1 0.00 1.35 0.00 47 1009.0
20260507140640 8 231 4.8 19.3 0.00 1.35 0.00 47 1009.1
20260507140522 8 310 3.2 17.7 0.00 1.35 0.00 47 1009.1
20260507140446 8 264 3.2 17.7 0.00 1.35 0.00 47 1009.1
20260507140341 8 260 4.8 17.7 0.00 1.35 0.00 48 1009.1
20260507140223 8 240 6.4 17.7 0.00 1.35 0.00 47 1009.2
20260507140146 8 242 4.8 17.7 0.00 1.35 0.00 47 1009.2
20260507140108 8 231 6.4 17.7 0.00 1.35 0.00 47 1009.1
20260507140037 8 265 6.4 17.7 0.00 1.35 0.00 47 1009.1
20260507135918 8 301 8.0 17.7 0.00 1.50 0.00 47 1009.1
20260507135840 8 269 9.7 17.7 0.00 1.50 0.00 47 1009.1
20260507135701 8 287 8.0 17.7 0.00 1.50 0.00 46 1009.1
20260507135636 8 304 8.0 16.1 0.00 1.50 0.00 46 1009.1
20260507135506 8 342 6.4 16.1 0.00 1.50 0.00 45 1009.1
20260507135428 8 319 4.8 14.5 0.00 1.50 0.00 45 1009.1
20260507135229 8 252 4.8 16.1 0.00 1.50 0.00 44 1009.1
20260507135153 8 262 4.8 16.1 0.00 1.50 0.00 40 1009.1
20260507135036 8 304 4.8 16.1 0.00 1.50 0.00 44 1009.1
20260507135000 8 223 6.4 16.1 0.00 1.50 0.00 44 1009.1
20260507134918 8 200 6.4 16.1 0.00 1.50 0.00 44 1009.2
20260507134727 8 275 8.0 16.1 0.00 1.50 0.00 43 1009.2
20260507134642 8 290 9.7 16.1 0.00 1.50 0.00 43 1009.2
20260507134545 8 252 9.7 16.1 0.00 1.50 0.00 44 1009.2
20260507134427 8 312 8.0 14.5 0.00 1.50 0.00 43 1009.2
20260507134351 8 271 8.0 14.5 0.00 1.50 0.00 43 1009.2
20260507134304 8 296 8.0 12.9 0.00 1.50 0.00 42 1009.2
20260507134133 8 285 6.4 9.7 0.00 1.50 0.00 41 1009.1
20260507134035 8 267 4.8 9.7 0.00 1.50 0.00 40 1009.2
20260507133843 8 208 4.8 12.9 0.00 1.50 0.00 40 1009.1
20260507133744 8 205 6.4 12.9 0.00 1.50 0.00 38 1009.1
20260507133627 8 161 4.8 12.9 0.00 1.50 0.00 36 1009.0
20260507133549 8 153 4.8 12.9 0.00 1.50 0.00 36 1009.0
20260507133424 8 279 6.4 12.9 0.00 1.50 0.00 39 1009.1
20260507133327 8 218 3.2 12.9 0.00 1.50 0.00 39 1009.1
20260507133249 8 292 3.2 12.9 0.00 1.50 0.00 39 1009.1
20260507133211 8 291 3.2 12.9 0.00 1.50 0.00 41 1009.0
20260507133117 8 101 6.4 12.9 0.00 1.50 0.00 40 1009.1
20260507133043 8 87 8.0 12.9 0.00 1.50 0.00 40 1009.1
20260507132912 8 158 3.2 12.9 0.00 1.50 0.00 36 1009.1
20260507132826 8 223 3.2 12.9 0.00 1.50 0.00 37 1009.1
20260507132636 8 299 4.8 12.9 0.00 1.50 0.00 35 1009.1
20260507132554 8 333 3.2 12.9 0.00 1.50 0.00 28 1009.1
20260507132517 8 294 1.6 11.3 0.00 1.50 0.00 29 1009.0
20260507132346 8 189 4.8 12.9 0.00 1.50 0.00 28 1009.0
20260507132247 8 167 6.4 12.9 0.00 1.50 0.00 27 1009.0
20260507132143 8 183 6.4 11.3 0.00 1.50 0.00 30 1009.0
20260507132105 8 267 6.4 9.7 0.00 1.50 0.00 30 1009.0
20260507132009 8 295 4.8 11.3 0.00 1.50 0.00 28 1009.0
20260507131935 8 324 4.8 11.3 0.00 1.50 0.00 28 1009.1
20260507131754 8 238 6.4 12.9 0.00 1.50 0.00 28 1009.1
20260507131535 8 150 4.8 16.1 0.00 1.50 0.00 28 1009.2
20260507131458 8 241 4.8 16.1 0.00 1.50 0.00 27 1009.2
20260507131404 8 236 6.4 16.1 0.00 1.50 0.00 29 1009.2
20260507131323 8 290 6.4 16.1 0.00 1.50 0.00 25 1009.2
20260507131136 8 313 4.8 16.1 0.00 1.50 0.00 23 1009.1
20260507131031 8 202 4.8 16.1 0.00 1.50 0.00 24 1009.2
20260507130924 8 250 6.4 16.1 0.00 1.50 0.00 24 1009.2
20260507130849 8 212 8.0 16.1 0.00 1.50 0.00 24 1009.2
20260507130721 8 198 6.4 16.1 0.00 1.50 0.00 16 1009.1
20260507130634 8 259 4.8 11.3 0.00 1.50 0.00 11 1009.1
20260507130505 8 277 3.2 11.3 0.00 1.50 0.00 7 1009.0
20260507130427 8 285 1.6 11.3 0.00 1.50 0.00 3 1009.1
20260507130229 8 169 3.2 11.3 0.00 1.50 0.00 7 1009.0
20260507130150 8 268 3.2 11.3 0.00 1.50 0.00 8 1009.0
20260507130034 8 220 6.4 11.3 0.00 1.50 0.00 11 1009.0
20260507125955 8 205 6.4 12.9 0.00 1.75 0.00 9 1009.1
20260507125828 8 225 3.2 12.9 0.00 1.75 0.00 7 1009.0
20260507125755 8 213 4.8 12.9 0.00 1.75 0.00 11 1009.0
20260507125639 7 236 6.4 12.9 0.00 1.75 0.00 11 1009.1
20260507125523 8 283 6.4 12.9 0.00 1.75 0.00 9 1009.1
20260507125444 8 252 6.4 12.9 0.00 1.75 0.00 5 1009.1
20260507125253 8 279 4.8 12.9 0.00 1.75 0.00 1 1009.1
20260507125155 8 234 4.8 12.9 0.00 1.75 0.00 1 1009.1
20260507125119 8 318 3.2 11.3 0.00 1.75 0.00 1 1009.1
20260507124928 7 203 3.2 17.7 0.00 1.75 0.00 1 1009.1
20260507124822 7 223 4.8 17.7 0.00 1.75 0.00 1 1009.1
20260507124748 7 281 3.2 17.7 0.00 1.75 0.00 1 1009.1
20260507124650 7 195 3.2 17.7 0.00 1.75 0.00 1 1009.1
20260507124611 7 236 3.2 17.7 0.00 1.75 0.00 1 1009.1
20260507124545 7 234 4.8 17.7 0.00 1.75 0.00 1 1009.1
20260507124409 7 240 6.4 17.7 0.00 1.75 0.00 1 1009.2
20260507124331 7 244 6.4 17.7 0.00 1.75 0.00 1 1009.2
20260507124211 7 194 6.4 14.5 0.00 1.75 0.00 1 1009.2
20260507124124 7 240 6.4 14.5 0.00 1.75 0.00 1 1009.1
20260507123955 7 304 4.8 14.5 0.00 1.75 0.00 1 1009.1
20260507123856 7 267 3.2 14.5 0.00 1.75 0.00 1 1009.1
20260507123636 7 313 4.8 14.5 0.00 1.75 0.00 1 1009.1
20260507123544 7 279 6.4 17.7 0.00 1.75 0.00 1 1009.1
20260507123426 7 186 4.8 17.7 0.00 1.75 0.00 1 1009.1
20260507123350 7 240 3.2 17.7 0.00 1.75 0.00 1 1009.1
20260507123244 7 248 6.4 17.7 0.00 1.75 0.00 1 1009.1
20260507123204 7 250 6.4 17.7 0.00 1.75 0.00 1 1009.1
20260507123119 7 279 4.8 17.7 0.00 1.75 0.00 1 1009.1
20260507122928 7 304 4.8 17.7 0.00 1.75 0.00 1 1009.2
20260507122824 7 307 8.0 17.7 0.00 1.75 0.00 1 1009.2
20260507122723 7 276 6.4 11.3 0.00 1.75 0.00 1 1009.2
20260507122645 7 192 4.8 12.9 0.00 1.75 0.00 1 1009.2
20260507122455 7 298 3.2 11.3 0.00 1.75 0.00 1 1009.2
20260507122410 7 206 1.6 11.3 0.00 1.75 0.00 1 1009.2
20260507122219 7 219 3.2 11.3 0.00 1.75 0.00 1 1009.2
20260507122142 7 197 3.2 11.3 0.00 1.75 0.00 1 1009.2
20260507122013 7 246 1.6 11.3 0.00 1.75 0.00 1 1009.3
20260507121927 7 246 3.2 11.3 0.00 1.75 0.00 1 1009.3
20260507121739 7 254 4.8 11.3 0.00 1.75 0.00 1 1009.3
20260507121634 6 253 4.8 9.7 0.00 1.75 0.00 1 1009.2
20260507121532 6 210 4.8 8.0 0.00 1.75 0.00 1 1009.1
20260507121432 7 298 3.2 8.0 0.00 1.75 0.00 1 1009.0
20260507121326 6 238 1.6 8.0 0.00 1.75 0.00 1 1009.1
20260507121249 6 288 1.6 8.0 0.00 1.75 0.00 1 1009.1
20260507121204 6 5 1.6 8.0 0.00 1.75 0.00 1 1009.0
20260507121033 6 303 1.6 8.0 0.00 1.75 0.00 1 1009.1
20260507120935 6 296 3.2 8.0 0.00 1.75 0.00 1 1009.1
20260507120735 6 346 1.6 9.7 0.00 1.75 0.00 1 1009.1
20260507120657 6 316 3.2 9.7 0.00 1.75 0.00 1 1009.1
20260507120525 6 302 4.8 9.7 0.00 1.75 0.00 1 1009.1
20260507120449 6 236 6.4 9.7 0.00 1.75 0.00 1 1009.1
20260507120343 6 214 6.4 9.7 0.00 1.75 0.00 1 1009.0
20260507120304 6 178 4.8 9.7 0.00 1.75 0.00 1 1009.0
20260507120218 6 149 4.8 9.7 0.00 1.75 0.00 1 1009.0
20260507120140 6 196 4.8 9.7 0.00 1.75 0.00 1 1009.0
20260507120010 6 198 3.2 8.0 0.00 1.75 0.00 1 1009.1
20260507115924 6 219 4.8 8.0 0.00 1.80 0.00 1 1009.0
20260507115734 6 204 1.6 9.7 0.00 1.80 0.00 1 1009.0
20260507115613 6 50 1.6 9.7 0.00 1.80 0.00 1 1009.0
20260507115528 6 244 3.2 9.7 0.00 1.80 0.00 1 1009.0
20260507115430 6 229 3.2 9.7 0.00 1.80 0.00 1 1009.1
20260507115354 6 234 3.2 9.7 0.00 1.80 0.00 1 1009.1
20260507115256 6 189 4.8 9.7 0.00 1.80 0.00 1 1009.0
20260507115157 6 235 6.4 9.7 0.00 1.80 0.00 1 1008.9
20260507115006 6 204 6.4 9.7 0.00 1.80 0.00 1 1008.9
20260507114921 6 199 4.8 8.0 0.00 1.80 0.00 1 1008.9
20260507114732 6 201 3.2 6.4 0.00 1.80 0.00 1 1008.9
20260507114630 6 217 3.2 4.8 0.00 1.80 0.00 1 1008.8
20260507114554 6 210 3.2 4.8 0.00 1.80 0.00 1 1008.8
20260507114459 6 210 3.2 4.8 0.00 1.80 0.00 1 1008.8
20260507114420 6 210 1.6 4.8 0.00 1.80 0.00 1 1008.7
20260507114249 6 202 0.0 0.0 0.00 1.80 0.00 1 1008.7
20260507114143 6 202 0.0 0.0 0.00 1.80 0.00 1 1008.7
20260507114014 6 202 0.0 0.0 0.00 1.80 0.00 1 1008.6
20260507113936 6 202 0.0 4.8 0.00 1.80 0.00 1 1008.6
20260507113805 6 202 0.0 6.4 0.00 1.80 0.00 1 1008.6
20260507113720 6 202 0.0 6.4 0.00 1.80 0.00 1 1008.6
20260507113529 6 201 0.0 6.4 0.00 1.80 0.00 1 1008.6
20260507113444 6 188 0.0 6.4 0.00 1.80 0.00 1 1008.6
20260507113317 6 171 0.0 6.4 0.00 1.80 0.00 1 1008.5
20260507113239 6 171 1.6 6.4 0.00 1.80 0.00 1 1008.5
20260507113042 6 167 4.8 8.0 0.00 1.80 0.00 1 1008.5
20260507113005 6 175 4.8 8.0 0.00 1.80 0.00 1 1008.4
20260507112904 6 155 3.2 8.0 0.00 1.80 0.00 1 1008.4
20260507112826 6 161 3.2 8.0 0.00 1.80 0.00 1 1008.4
20260507112639 6 153 0.0 4.8 0.00 1.80 0.00 1 1008.5
20260507112532 6 185 0.0 4.8 0.00 1.80 0.00 1 1008.5
20260507112456 6 185 0.0 4.8 0.00 1.80 0.00 1 1008.5
20260507112345 6 185 1.6 4.8 0.00 1.80 0.00 1 1008.5
20260507112307 6 185 1.6 6.4 0.00 1.80 0.00 1 1008.5
20260507112150 6 185 1.6 6.4 0.00 1.80 0.00 1 1008.5
20260507112111 6 185 1.6 6.4 0.00 1.80 0.00 1 1008.5
20260507111921 6 185 3.2 6.4 0.00 1.80 0.00 1 1008.5
20260507111837 6 185 3.2 6.4 0.00 1.80 0.00 1 1008.5
20260507111706 6 150 1.6 6.4 0.00 1.80 0.00 1 1008.5
20260507111628 6 149 3.2 6.4 0.00 1.80 0.00 1 1008.6
20260507111430 6 226 4.8 8.0 0.00 1.80 0.00 1 1008.4
20260507111353 6 181 4.8 8.0 0.00 1.80 0.00 1 1008.4
20260507111237 6 159 4.8 8.0 0.00 1.80 0.00 1 1008.5
20260507111144 6 186 3.2 4.8 0.00 1.80 0.00 1 1008.5
20260507111038 6 178 1.6 3.2 0.00 1.80 0.00 1 1008.6
20260507111001 6 279 0.0 3.2 0.00 1.80 0.00 1 1008.6
20260507110904 6 279 0.0 3.2 0.00 1.80 0.00 1 1008.6
20260507110824 6 279 1.6 3.2 0.00 1.80 0.00 1 1008.6
20260507110654 6 279 1.6 3.2 0.00 1.80 0.00 1 1008.6
20260507110527 6 279 0.0 3.2 0.00 1.80 0.00 1 1008.6
20260507110450 6 279 0.0 3.2 0.00 1.80 0.00 1 1008.6
20260507110354 6 279 0.0 4.8 0.00 1.80 0.00 1 1008.6
20260507110316 6 279 0.0 4.8 0.00 1.80 0.00 1 1008.5
20260507110124 6 279 0.0 4.8 0.00 1.80 0.00 1 1008.6
20260507110027 6 279 0.0 4.8 0.00 1.80 0.00 1 1008.5
20260507105932 6 279 0.0 4.8 0.00 1.83 0.00 1 1008.5
20260507105854 6 279 1.6 4.8 0.00 1.83 0.00 1 1008.5
20260507105816 6 279 1.6 4.8 0.00 1.83 0.00 1 1008.5
20260507105638 6 279 1.6 4.8 0.00 1.83 0.00 1 1008.5
20260507105542 6 279 3.2 4.8 0.00 1.83 0.00 1 1008.5
20260507105425 6 279 1.6 4.8 0.00 1.83 0.00 1 1008.5
20260507105349 6 277 0.0 4.8 0.00 1.83 0.00 1 1008.5
20260507105314 6 273 0.0 6.4 0.00 1.83 0.00 1 1008.5
20260507105116 6 273 3.2 6.4 0.00 1.83 0.00 1 1008.5
20260507105044 6 273 3.2 6.4 0.00 1.83 0.00 1 1008.5
20260507104945 6 227 3.2 6.4 0.00 1.83 0.00 1 1008.4
20260507104829 6 194 3.2 6.4 0.00 1.83 0.00 1 1008.4
20260507104755 6 194 3.2 6.4 0.00 1.83 0.00 1 1008.4